User: anonymous   Login
Location: Antioch Baptist Church
(32.6696°N, 85.7327°W)
Time: 23:03:22
(UTC+00:00)
Language:

BREEZE-M R/B - Orbit

View from above orbital plane
View from above orbital plane
View from above satellite
View from above satellite

Ground track
Ground track

The orbit data is extracted from the following two-line orbital elements,

1 38746U 12044C   20263.06217812  .00002976  00000-0  19328-3 0  9999
2 38746  49.6847 305.6377 2396393 329.7955  18.3642 10.51863431307347
Epoch (UTC): 19 September 2020 01:29:32
Eccentricity: 0.2396393
inclination: 49.6847°
perigee height: 312 km
apogee height: 4529 km
right ascension of ascending node: 305.6377°
argument of perigee: 329.7955°
revolutions per day: 10.51863431
mean anomaly at epoch: 18.3642°
orbit number at epoch: 30734

The dashed part of the orbit path shows where the satellite is in the earth's shadow,  

DLR